Location: Unspecified
(43.4680°N, 87.1740°E)
Time: 19:54:36
(UTC+00:00)

Cosmos 1356 Rocket - Pass Details

Date: 02 August 2021
Orbit: 543 x 597 km, 81.2° (Epoch: 15 September)

Event Time Altitude Azimuth Distance (km) Brightness Sun altitude
Exits shadow 18:39:13 13° 71° (ENE) 1,633 6.0 -28.8°
Drops below altitude 10° 18:40:20 10° 56° (NE) 1,817 6.4 -28.8°
Sets 18:43:23 0° 30° (NNE) 2,715 7.9 -28.7°
